Theta_e
312 314 315 315 316 316 317 318 318 317 318 320 323 327 329 330 332 332 331 330 330 330 330 331 331 331 332 332 332 332 332 332 332 331 331 330 330 331 331 331 332 333 333 334 334 335 335 335 335 335 335 335 336 336 336 336 335 335 335 335 335 335 335 335 335 334 334 334 333 333 333 333 333 332
311 312 313 314 315 316 317 317 316 315 315 316 318 322 326 329 331 331 330 330 330 330 331 331 330 331 331 332 332 333 333 333 333 332 332 331 331 331 331 331 333 333 333 334 333 333 334 335 335 336 336 337 337 336 336 336 336 335 335 335 335 335 335 335 335 335 334 334 334 334 334 334 333 333
311 311 312 312 314 315 315 315 315 315 314 314 315 318 322 326 328 330 330 331 331 330 331 330 330 331 331 332 332 332 333 332 333 333 333 332 332 332 333 333 333 334 334 334 333 333 333 333 334 335 336 337 337 337 337 336 336 336 336 336 336 336 335 335 335 335 334 334 334 333 334 334 334 334
311 311 311 311 312 313 314 314 315 315 315 316 316 317 319 321 323 326 329 330 330 330 330 330 330 331 332 333 332 332 332 332 332 333 333 333 333 332 333 333 333 333 333 333 333 333 332 333 334 335 336 336 337 337 337 337 336 336 336 336 336 336 336 335 335 334 334 334 334 333 333 333 334 334
310 310 310 310 311 311 311 311 312 313 314 314 314 315 316 316 318 322 325 327 328 328 329 330 330 331 332 332 332 332 332 332 333 333 333 333 333 333 333 333 333 332 332 333 333 333 333 332 333 334 335 336 336 336 337 337 337 336 336 337 336 336 336 336 335 335 334 334 333 333 333 332 333 333
308 308 308 308 309 309 309 309 309 310 310 311 311 312 312 314 317 319 319 321 323 324 325 327 328 330 331 332 332 332 332 332 333 333 333 333 333 334 334 333 333 333 332 332 333 333 333 333 333 333 334 335 337 337 337 336 336 337 337 337 337 336 336 336 336 335 335 334 334 333 332 332 331 331
306 306 306 306 306 306 306 307 307 307 308 308 309 309 311 313 316 316 314 316 318 320 321 322 324 326 328 329 330 331 332 332 333 333 333 334 334 334 334 334 334 334 333 333 333 334 333 332 331 331 332 334 336 337 337 337 337 336 337 337 337 337 337 336 336 336 335 335 334 333 332 331 331 330
304 304 304 304 305 304 304 305 305 305 306 306 306 307 309 312 313 312 312 313 314 317 319 320 321 323 325 326 327 327 329 330 331 333 333 334 334 334 334 334 334 334 334 334 334 334 333 331 329 328 329 333 335 336 337 337 337 337 337 337 337 336 337 336 336 336 335 335 334 333 333 331 331 330
302 302 302 302 303 303 303 303 303 304 304 304 305 306 308 309 310 310 310 310 312 314 316 318 320 321 323 324 325 325 327 328 330 331 333 333 334 334 334 334 334 334 334 334 334 334 333 332 331 330 328 330 333 334 335 335 336 337 337 337 337 337 337 337 336 336 336 335 335 334 333 332 331 330
301 301 301 301 301 302 302 302 302 302 302 303 304 305 306 307 307 307 308 309 310 313 315 317 319 320 322 323 324 325 327 328 329 330 331 332 333 334 334 334 334 334 334 334 334 334 334 333 334 333 331 329 329 331 334 334 334 334 335 335 336 336 336 336 336 336 336 335 335 334 334 332 331 330
300 300 300 300 300 300 300 301 301 302 302 303 303 304 304 304 304 305 306 307 309 312 314 317 319 320 321 322 323 324 326 327 329 330 330 331 331 332 334 334 334 335 335 335 335 334 335 334 334 334 334 332 331 331 333 332 332 333 334 334 334 334 334 335 335 336 336 335 335 335 334 333 332 330
299 299 299 299 299 299 300 301 301 302 302 302 302 302 302 303 303 304 305 306 309 311 313 315 318 319 320 321 322 323 325 326 328 328 330 331 331 332 333 333 334 335 335 335 335 335 335 335 335 334 334 334 333 333 333 332 331 333 334 334 334 334 334 334 335 335 336 336 335 335 334 334 333 332
298 298 298 298 298 299 300 301 301 301 301 301 301 301 302 302 303 304 305 306 308 309 311 313 315 317 319 320 321 322 324 325 326 327 328 329 330 330 331 332 333 334 334 334 335 335 335 334 334 334 333 333 333 333 334 334 334 335 335 334 334 334 334 334 334 335 335 335 335 335 335 334 334 334
297 297 297 297 298 298 299 300 300 300 300 301 301 302 302 303 304 305 306 307 308 309 311 312 313 315 317 318 320 321 322 323 324 326 327 328 328 329 330 330 331 332 333 334 334 334 334 334 334 334 334 334 334 334 334 334 334 334 334 334 333 334 334 334 334 334 334 334 334 334 334 334 335 335
296 296 296 296 297 298 298 299 300 301 301 302 302 302 303 303 303 304 305 306 307 309 310 312 313 315 316 318 319 321 322 324 325 326 326 327 328 329 329 329 330 330 331 332 333 333 333 334 334 334 334 334 334 334 334 334 333 333 333 334 334 334 334 334 334 334 334 334 334 335 335 335 335 335
295 295 295 296 296 297 298 299 300 300 300 301 301 301 302 302 302 303 304 305 307 308 309 311 312 314 316 318 319 321 322 324 325 326 326 327 328 329 329 328 329 330 330 331 332 333 333 334 334 334 334 334 333 334 334 333 333 333 333 334 334 334 334 334 334 334 335 335 335 336 336 336 336 335
294 294 295 295 296 296 297 298 298 299 299 300 300 300 300 301 302 302 303 304 305 307 309 310 312 314 315 317 319 320 321 323 324 326 326 327 328 329 329 329 329 330 330 330 331 332 332 332 332 332 332 331 332 333 334 334 333 334 334 334 334 334 333 333 333 335 335 336 336 336 335 334 334 335
293 294 294 294 294 295 295 296 297 297 298 299 299 299 299 299 300 301 302 303 304 306 308 310 312 313 314 316 317 318 320 322 323 324 326 326 327 327 328 328 329 329 328 329 329 330 330 330 330 331 331 330 331 332 333 334 334 334 334 334 334 333 332 332 333 334 335 335 336 336 334 332 332 333
293 293 293 293 294 295 295 296 297 297 298 298 298 298 298 299 300 300 301 302 303 304 306 308 310 311 312 312 313 315 318 321 323 323 324 325 326 326 327 327 327 327 328 328 329 329 329 330 330 331 330 330 330 331 332 333 332 332 332 332 332 332 332 331 332 333 335 335 335 335 334 333 332 332
293 294 294 294 295 295 296 297 297 297 297 297 297 297 298 299 300 300 301 302 302 303 305 307 308 308 308 309 309 311 314 318 321 321 322 324 324 324 325 326 326 327 327 328 328 329 329 330 330 330 331 331 331 331 330 330 330 329 329 330 330 331 331 331 331 332 334 335 335 334 334 334 334 334
294 295 295 296 296 297 297 297 296 296 295 296 296 296 297 298 299 300 301 302 303 304 305 306 305 305 306 307 308 310 312 314 316 317 318 320 321 322 324 325 325 326 327 328 329 329 329 330 330 330 330 330 330 330 330 329 329 329 329 329 329 329 330 331 332 332 333 333 333 334 334 333 334 335
295 296 296 296 297 296 296 295 294 294 294 294 294 295 296 297 298 299 300 300 301 302 303 303 304 305 306 307 308 309 311 312 314 315 316 318 319 321 324 325 325 326 326 327 328 329 329 330 330 330 330 330 330 330 329 329 329 329 329 329 330 330 330 331 331 331 332 332 332 333 333 334 334 335
295 296 296 296 296 294 294 293 293 293 293 293 293 294 295 295 296 296 296 296 297 298 299 301 303 304 305 307 308 309 310 312 313 315 316 317 318 320 322 323 324 325 325 326 327 328 328 329 329 329 330 330 330 329 329 330 330 330 330 331 331 331 331 331 331 331 332 332 332 333 333 333 333 334
296 296 296 295 294 293 292 292 292 291 291 292 292 293 293 292 293 293 293 294 296 297 299 300 302 304 305 307 308 310 311 313 314 314 315 316 317 319 321 322 322 323 324 325 326 327 327 327 327 327 328 328 328 329 329 329 329 329 329 329 329 329 330 331 332 333 333 333 333 333 333 333 333 333
296 296 295 293 292 291 291 291 291 290 291 291 291 291 291 291 292 293 294 295 296 298 299 301 303 305 307 308 309 311 313 313 314 314 315 315 316 318 320 322 322 322 323 324 325 325 325 325 326 326 326 326 326 327 327 327 327 327 326 327 327 327 328 330 331 332 332 332 333 333 333 333 333 333
294 294 293 292 291 291 291 290 290 290 290 290 290 290 291 292 293 293 294 295 296 297 299 301 303 305 307 308 309 311 312 312 313 314 315 316 317 318 319 321 322 322 323 323 323 324 324 324 325 324 324 323 323 323 323 323 324 324 324 325 326 326 327 328 328 329 329 329 330 330 330 330 331 332
293 292 291 291 291 290 290 290 289 289 289 289 289 290 291 292 292 293 293 293 294 296 298 300 301 303 304 304 306 307 308 309 311 312 314 316 318 319 320 321 322 322 321 321 322 323 323 323 323 323 322 322 321 321 322 322 323 324 324 324 325 325 325 325 325 325 326 326 327 328 328 328 329 331
292 291 291 291 291 290 290 289 289 289 289 289 289 290 290 291 291 291 292 292 293 294 295 297 298 299 300 301 302 304 306 307 309 310 312 314 317 320 321 321 321 320 319 320 321 321 321 322 322 322 322 321 321 322 323 323 324 324 323 322 322 322 322 321 322 322 322 323 324 325 326 327 328 330
291 291 291 291 290 290 289 289 289 289 288 288 289 289 289 290 290 291 291 292 292 293 293 294 295 296 297 298 299 302 304 306 307 309 311 313 315 317 318 317 316 316 316 316 317 317 318 318 318 319 320 321 321 322 322 322 322 320 317 317 318 320 319 318 319 320 320 321 321 322 322 322 324 325
290 290 290 289 289 288 288 288 288 288 288 288 289 289 289 289 289 290 290 291 291 292 292 293 293 294 295 296 298 301 303 304 306 309 310 311 313 314 315 314 312 312 312 313 313 314 315 315 316 317 318 319 319 319 319 320 318 315 312 312 314 316 315 315 316 317 317 319 319 318 317 316 317 319
289 289 288 288 288 288 288 288 288 288 288 288 288 288 288 288 289 289 290 290 290 291 291 292 292 293 294 295 296 299 300 302 305 307 309 310 312 313 312 310 308 308 309 310 311 312 313 313 314 315 316 316 314 313 314 315 311 308 307 308 308 309 310 312 314 314 315 317 317 315 314 313 313 313
288 288 287 287 288 288 288 288 288 288 287 287 287 288 288 288 288 289 289 290 290 290 291 291 292 292 293 294 294 296 298 299 302 304 306 307 308 310 309 306 303 304 306 307 307 308 309 310 311 312 312 312 309 308 309 308 305 303 304 305 305 305 306 309 311 312 312 314 313 310 309 309 309 308
288 288 287 287 287 287 287 287 287 287 287 287 287 287 287 288 288 288 289 289 289 290 290 290 291 291 292 292 293 294 295 297 299 301 302 302 303 304 304 302 300 301 303 304 304 304 304 304 306 307 307 306 305 304 304 303 301 301 302 302 303 303 304 306 309 310 309 308 307 305 304 304 304 304
287 287 287 286 286 286 286 286 286 286 286 286 287 287 287 287 288 288 288 288 289 289 290 290 290 291 291 292 292 293 293 294 296 298 299 299 299 300 300 299 299 299 300 301 303 303 303 302 302 302 302 302 301 300 300 300 300 300 300 301 301 301 302 303 305 307 307 306 304 303 301 301 300 301
286 286 286 286 286 286 286 286 285 286 286 286 286 287 287 287 287 287 288 288 288 289 289 290 290 290 290 291 291 292 292 293 294 295 296 297 297 297 297 298 298 298 298 299 300 302 304 304 302 300 300 300 299 298 298 297 298 299 299 300 300 300 301 302 303 304 304 304 303 302 301 299 298 298
285 285 285 285 286 286 286 286 286 286 286 286 286 286 287 287 287 287 287 288 288 288 289 289 289 290 290 290 291 291 291 292 292 293 294 294 295 296 296 296 296 297 297 297 298 300 302 302 301 300 300 299 298 297 296 295 296 297 298 298 299 300 300 300 301 302 302 302 302 302 300 299 298 297
285 285 285 285 285 285 286 285 286 286 286 286 286 286 286 286 287 287 288 288 288 288 288 288 289 289 289 290 290 290 291 291 291 292 292 293 293 294 295 295 295 295 295 296 297 298 299 299 299 299 299 298 297 297 296 295 295 296 297 298 299 299 299 300 300 300 300 301 301 301 300 299 298 297
285 285 285 285 286 286 285 285 286 286 286 286 286 286 287 287 287 287 288 288 288 288 288 288 288 289 289 289 290 290 290 290 290 291 291 292 292 293 293 293 294 294 294 295 296 297 298 298 298 298 298 298 297 296 295 294 293 294 297 298 299 298 299 299 299 298 298 298 298 298 298 297 297 296
286 286 286 286 285 285 285 285 285 286 286 286 286 287 287 287 287 287 287 288 288 288 288 288 288 288 288 289 289 289 289 289 290 290 290 290 291 291 292 292 293 293 293 294 294 296 297 297 298 298 298 298 297 296 294 293 292 292 294 296 298 298 297 297 297 297 297 296 296 296 296 296 296 296
286 286 286 286 285 285 285 285 285 285 286 286 286 287 287 287 287 287 287 287 287 287 288 288 288 288 288 288 288 288 289 289 289 289 290 290 290 291 291 291 292 292 292 292 293 294 294 295 297 298 297 296 296 295 294 293 292 291 291 292 294 295 295 295 295 295 295 295 295 295 295 295 295 294
286 286 286 286 285 285 285 285 285 285 286 286 286 287 287 287 287 287 287 287 287 287 287 287 287 288 288 288 288 288 288 288 288 289 289 290 290 290 291 291 291 291 291 291 292 292 293 294 295 297 296 295 295 295 294 293 292 292 291 291 291 292 293 293 293 293 293 294 295 294 293 293 293 292
286 286 286 286 285 285 285 284 284 284 285 286 287 287 287 287 287 287 287 287 287 287 287 287 287 287 287 287 288 288 288 288 288 288 289 289 289 290 290 290 290 290 290 290 291 291 292 293 294 295 295 294 294 293 292 291 291 291 291 291 290 290 291 291 291 291 292 292 293 292 292 292 292 291
286 285 285 285 285 285 285 284 284 284 285 286 287 287 287 287 287 287 287 286 286 287 287 287 287 287 287 287 288 288 288 288 288 288 288 288 289 289 289 289 289 290 290 290 290 291 292 292 293 293 292 292 291 291 290 290 290 290 291 290 290 289 289 290 290 290 290 290 290 290 290 290 290 290
285 285 285 285 285 284 284 284 284 285 286 286 287 287 287 287 287 287 286 286 286 286 286 286 287 287 287 287 288 288 287 287 288 288 288 288 288 288 288 289 289 290 290 290 290 290 290 291 291 291 290 290 290 290 290 289 289 289 290 290 289 289 288 289 289 289 289 289 288 288 288 288 288 287
285 285 285 285 285 284 283 283 284 285 286 286 287 287 287 287 287 287 286 286 286 286 286 286 286 286 287 287 287 287 287 288 288 288 288 288 288 288 288 288 289 289 289 289 289 289 289 289 289 289 289 289 289 288 288 288 289 289 289 289 289 288 288 287 288 288 287 287 287 287 287 287 287 286
Wind_Speed
19 19 19 21 22 19 16 16 18 19 21 21 21 21 20 16 8 6 8 8 9 16 19 20 23 22 21 23 23 24 24 25 25 26 28 30 31 32 32 32 33 33 32 31 31 35 40 44 45 45 44 42 41 40 39 39 40 40 42 42 43 43 44 44 43 43 43 42 42 42 41 41 40 41
18 17 18 18 19 18 17 18 20 20 21 22 22 21 22 22 16 10 10 10 13 17 17 20 23 23 23 23 22 23 24 25 25 26 27 28 29 30 31 31 31 31 33 33 32 32 35 39 43 46 46 45 44 42 40 39 39 40 40 41 42 42 43 43 44 44 44 44 43 43 42 42 41 41
15 15 15 15 16 16 16 18 19 21 22 23 23 21 20 21 21 19 14 10 15 19 18 22 27 27 26 26 26 27 29 29 28 28 28 29 29 29 29 29 29 30 31 32 32 32 32 34 37 41 45 46 46 44 42 41 40 40 40 41 41 41 42 42 43 44 45 45 44 44 43 43 43 42
13 13 14 15 16 16 16 16 16 17 19 20 19 18 18 19 20 22 19 11 13 22 24 26 30 30 29 29 29 30 32 31 30 30 30 30 31 31 31 30 30 31 31 32 33 34 34 33 33 35 39 43 46 45 44 42 41 40 40 40 41 41 41 42 42 43 45 45 45 45 44 44 43 43
13 14 15 16 18 18 18 18 17 17 18 19 20 19 19 20 20 20 19 13 12 20 25 26 30 30 28 28 29 29 29 30 30 29 30 31 32 34 35 35 35 35 34 33 33 34 35 34 32 32 33 37 41 43 44 43 43 41 40 40 40 40 41 41 42 43 44 45 46 46 45 44 44 44
15 16 17 18 19 20 20 20 20 20 20 20 21 21 21 22 19 17 19 17 13 16 21 24 26 26 23 24 27 26 27 29 30 29 30 31 32 34 35 37 39 39 37 36 34 32 32 31 31 32 32 32 34 37 40 42 43 43 42 41 40 40 40 40 41 42 43 44 46 46 46 46 45 44
17 18 18 20 20 21 21 22 22 22 22 21 21 22 22 20 19 19 20 19 15 16 20 23 24 24 21 21 24 25 25 28 28 29 30 30 30 31 33 34 35 35 35 35 33 30 28 27 28 29 30 30 30 31 34 37 41 43 44 43 42 41 40 41 41 41 42 43 45 46 47 47 46 45
17 18 19 20 22 22 22 22 23 22 22 23 22 22 22 20 20 23 24 21 19 18 20 22 23 24 23 21 23 25 25 26 26 26 27 28 29 30 31 32 33 32 31 32 32 31 30 29 30 30 30 30 29 28 29 33 37 40 43 44 44 43 42 42 41 41 42 42 43 45 46 47 47 47
17 18 18 19 20 21 22 23 23 23 23 24 23 22 22 21 21 24 25 24 22 20 20 23 24 25 24 24 24 24 24 25 26 25 24 25 27 29 30 31 31 31 31 30 30 31 31 32 32 32 31 30 30 28 27 29 32 36 40 43 44 45 44 43 42 42 41 42 42 43 44 45 46 47
20 19 19 20 20 20 21 23 24 25 25 25 23 22 22 23 23 24 25 25 24 22 22 23 25 25 23 23 25 23 21 22 24 25 25 25 26 27 29 31 31 31 31 31 30 30 31 32 32 32 31 31 32 32 30 30 32 34 37 39 42 44 45 45 44 43 41 41 41 41 42 43 44 45
23 22 21 21 22 22 23 23 24 25 25 24 23 23 24 24 25 24 25 25 24 22 21 22 23 24 22 21 23 24 23 22 22 23 23 25 26 25 25 27 29 29 29 29 28 28 28 28 28 29 29 29 31 33 34 34 34 34 36 37 38 39 41 42 44 44 43 41 40 39 39 40 41 42
24 25 24 24 24 24 23 23 23 24 24 24 24 23 22 23 23 23 23 23 23 22 21 20 22 24 24 21 20 23 24 21 19 20 20 21 25 25 23 24 25 25 26 26 26 26 26 27 27 28 28 29 30 32 33 33 34 34 35 35 34 34 34 35 38 41 43 43 41 40 39 38 39 39
25 25 25 25 24 23 22 22 23 23 23 24 24 24 23 23 22 21 21 21 21 20 19 19 19 22 24 22 18 19 21 20 20 22 21 20 25 27 26 26 26 25 26 26 27 28 29 31 31 31 31 31 31 31 31 31 32 32 33 33 33 32 32 31 33 36 41 43 43 41 40 39 39 39
26 24 24 24 23 21 20 20 20 21 21 21 22 23 23 22 20 19 19 19 19 19 18 17 17 17 20 23 21 19 22 24 25 25 22 21 23 23 21 23 28 28 26 26 28 31 32 32 33 33 33 33 33 34 34 34 33 33 33 33 33 32 31 30 30 32 36 39 40 40 39 39 40 40
26 26 25 24 22 19 18 18 18 19 19 19 20 20 20 20 20 20 20 20 20 19 19 18 17 17 19 23 24 23 23 24 25 25 24 22 21 18 13 12 19 24 22 21 25 28 27 27 29 30 29 29 31 33 34 33 31 30 30 30 31 31 29 28 28 28 29 30 31 31 32 34 35 36
26 25 23 21 19 17 16 17 18 18 18 18 19 20 21 22 23 22 22 22 22 22 22 20 19 19 20 22 23 24 24 24 25 25 24 22 20 19 15 11 15 23 21 16 19 23 24 23 24 25 25 25 26 27 28 27 26 25 26 27 28 27 26 27 27 27 27 26 26 26 27 28 30 32
22 21 20 19 18 17 17 17 17 17 18 20 21 23 24 23 22 22 22 23 24 25 26 24 23 22 22 23 24 25 25 24 25 23 21 20 20 20 19 18 22 26 22 16 16 21 26 25 22 23 24 24 25 26 25 24 23 23 23 23 24 25 25 26 27 27 27 27 27 28 28 29 31 32
18 18 19 19 19 19 19 18 17 19 21 23 25 27 28 26 24 23 23 23 24 26 26 25 25 23 23 24 26 28 29 28 26 23 20 20 21 22 22 23 26 27 25 20 15 15 23 24 20 22 25 25 27 27 25 24 23 23 24 24 26 27 27 26 26 27 27 28 29 29 30 30 30 31
16 17 17 18 19 20 20 19 19 21 23 25 27 29 29 27 25 23 23 23 24 26 27 27 26 26 26 27 27 28 29 29 29 26 24 23 24 24 24 23 25 26 26 24 16 12 19 23 20 22 26 26 28 27 25 25 25 25 26 26 27 28 28 27 27 27 28 28 28 29 30 31 32 33
16 16 17 17 18 19 18 18 19 21 24 26 27 27 26 24 23 23 24 24 25 27 27 28 29 29 30 31 30 29 26 24 26 26 25 25 23 21 19 19 22 24 24 24 20 16 19 23 21 22 25 26 27 27 26 25 25 25 25 25 26 27 27 28 29 29 29 29 29 30 31 32 34 35
16 16 16 16 18 18 17 17 19 20 21 22 22 21 21 21 21 21 22 22 22 23 25 29 31 32 31 31 31 31 27 22 19 19 20 19 17 15 12 11 16 20 22 22 19 17 19 21 20 21 23 24 26 27 27 26 25 24 24 24 24 25 27 28 30 31 32 32 32 32 32 32 33 33
16 16 15 14 16 16 16 18 19 18 18 19 20 20 20 20 20 19 20 22 24 25 27 30 31 32 31 30 29 29 28 23 18 16 16 15 15 15 11 8 10 15 19 21 18 15 16 18 18 18 18 19 23 25 25 24 22 20 20 20 21 22 24 26 28 29 31 32 32 32 31 31 32 33
15 15 14 13 14 16 18 18 18 17 18 19 20 19 18 19 19 19 22 26 29 30 30 29 29 29 30 29 27 26 25 22 17 15 15 16 16 17 15 12 9 7 11 15 15 14 13 14 16 15 9 8 13 16 16 15 15 16 17 18 20 22 22 23 25 27 28 29 30 30 29 30 31 34
15 14 13 12 14 16 16 15 16 17 18 17 17 16 17 19 21 23 26 28 28 28 28 27 26 26 26 26 25 24 22 20 17 16 16 16 17 17 17 16 11 8 9 11 13 13 10 8 11 13 8 5 6 9 13 16 18 19 20 21 23 24 23 23 24 25 27 27 27 28 28 29 31 33
14 13 11 11 14 15 14 13 15 17 17 16 16 18 19 19 21 22 24 24 23 22 22 22 22 21 20 19 19 17 16 15 14 15 15 14 15 15 17 17 14 14 15 15 16 15 9 6 9 11 10 8 7 9 15 21 22 21 20 20 20 20 20 21 23 24 25 25 26 27 28 29 31 32
11 10 10 11 13 14 13 12 15 17 18 18 19 20 20 18 17 17 18 18 18 17 17 18 17 15 13 12 12 11 11 9 9 9 9 9 11 12 14 14 15 15 14 13 14 13 8 6 9 10 9 8 7 7 12 16 19 18 17 16 16 16 18 20 22 23 24 25 25 26 27 27 28 29
10 9 10 11 12 13 14 13 15 18 20 20 21 22 21 20 19 18 18 18 17 16 15 14 13 13 12 12 12 12 11 10 9 7 5 4 6 9 11 12 14 14 13 11 11 11 8 8 9 10 10 9 7 6 7 10 14 17 18 16 15 15 17 19 20 21 23 25 26 26 26 26 25 24
9 9 9 9 10 12 14 15 16 18 20 21 21 22 23 24 23 22 20 19 17 16 15 15 15 15 14 14 13 13 12 11 9 8 5 1 0 3 5 7 8 9 8 6 6 5 4 5 6 6 7 8 7 5 5 8 10 13 15 15 14 14 14 15 15 16 17 18 19 20 21 22 22 22
9 8 7 8 10 12 14 16 17 18 20 22 22 23 24 25 26 24 21 19 18 17 16 16 16 17 17 17 15 12 10 9 8 8 5 1 3 5 7 9 9 6 4 2 1 1 1 3 6 7 7 8 10 9 8 9 9 9 12 14 12 10 10 10 9 9 9 8 9 10 11 13 15 16
7 8 9 10 11 13 14 16 17 19 20 22 24 25 25 25 25 24 22 20 19 18 17 17 18 18 19 18 14 10 7 6 6 4 3 2 4 6 8 10 10 8 6 5 4 2 2 3 6 8 9 8 7 7 8 7 6 7 10 12 10 7 7 8 6 6 7 8 10 12 12 10 7 4
7 9 11 12 12 13 14 16 17 18 20 22 24 25 25 25 24 23 22 21 21 20 19 18 19 19 20 19 16 13 10 8 6 2 1 1 3 6 8 10 12 11 9 8 6 4 2 2 3 4 6 4 3 5 4 4 7 11 12 13 11 8 8 8 6 8 10 11 14 18 21 22 21 18
6 8 11 13 14 15 16 17 18 20 21 21 23 24 25 25 25 25 26 26 25 24 22 21 22 22 22 22 21 18 16 14 12 8 6 5 5 5 6 8 11 11 12 13 12 12 10 7 5 4 5 7 9 10 12 14 15 15 14 14 15 13 13 12 9 8 10 13 18 23 25 26 28 28
5 8 12 15 17 17 19 20 20 21 22 22 23 24 25 26 26 26 27 27 27 26 25 24 24 23 23 23 23 22 20 19 18 16 14 14 14 13 13 14 13 12 12 13 14 16 18 18 17 17 19 20 20 19 19 18 19 18 17 16 17 17 17 16 13 11 14 17 20 23 26 27 28 29
6 10 13 15 16 16 18 19 20 20 21 22 23 24 25 26 26 26 26 25 25 25 25 25 24 23 23 24 25 24 23 22 21 21 20 19 19 19 18 17 15 14 14 13 10 10 12 15 19 23 26 29 31 31 28 22 18 18 19 19 19 19 19 18 17 15 16 19 21 22 23 25 28 30
10 12 13 14 14 14 15 16 17 18 19 20 22 23 24 25 25 26 25 25 24 24 25 25 25 25 24 24 24 24 23 23 22 23 23 22 21 20 18 17 15 16 17 17 13 9 7 8 12 17 19 21 24 27 30 29 24 20 20 21 20 19 20 20 20 19 17 18 21 23 22 21 24 27
13 12 12 13 13 13 14 14 15 16 17 19 20 22 23 24 24 24 24 23 23 23 24 24 25 26 25 24 24 24 24 24 24 23 22 21 19 18 19 18 18 18 19 19 18 16 14 13 14 14 10 9 10 11 17 26 29 24 20 19 20 20 20 21 22 23 21 19 19 20 19 18 18 20
14 12 12 12 12 12 12 12 13 14 16 17 19 20 21 21 22 22 22 22 23 23 23 23 24 25 25 24 24 24 24 23 23 23 23 21 19 18 18 18 18 19 20 20 21 22 22 20 19 16 10 6 7 6 7 19 29 28 21 17 19 20 21 22 24 25 24 23 21 19 18 17 16 17
13 12 11 11 11 11 11 10 11 12 14 16 17 18 19 19 19 20 21 22 24 24 23 23 23 23 24 24 23 23 23 23 23 23 23 21 20 19 17 17 17 17 19 21 23 24 24 23 22 19 14 7 5 5 6 14 25 30 25 18 17 20 22 23 24 23 22 23 22 20 19 18 16 17
10 10 10 10 10 10 9 9 9 10 12 14 15 16 17 18 19 20 20 22 23 23 23 23 23 22 23 23 22 21 22 23 23 22 21 21 20 19 17 17 17 17 19 21 22 22 22 22 20 19 18 14 10 11 15 16 21 31 34 27 22 22 23 23 22 20 19 19 19 20 21 20 18 18
8 8 8 7 8 9 8 8 7 7 8 11 12 13 15 16 18 19 20 20 22 23 23 23 23 23 23 22 22 21 22 22 21 20 20 20 20 20 19 19 18 18 19 19 20 19 18 16 15 17 20 21 20 23 26 24 23 30 37 35 31 29 27 24 23 22 18 15 16 19 21 21 21 22
6 7 7 6 7 8 7 7 6 5 6 8 10 11 13 15 16 17 18 19 20 21 22 21 21 22 22 22 22 22 22 22 22 21 20 20 21 22 22 22 21 21 19 17 18 19 17 15 15 18 20 21 23 23 20 16 15 19 26 31 33 33 31 29 28 26 22 18 17 18 16 15 18 23
5 6 6 6 6 6 6 7 6 5 5 6 9 11 13 13 14 15 16 18 19 20 21 20 20 20 21 22 22 22 22 21 21 21 21 21 21 22 23 22 21 20 20 18 18 19 20 20 21 21 20 21 24 20 12 7 9 14 18 23 27 30 31 30 30 30 29 27 24 20 13 9 10 15
5 5 6 5 5 5 5 6 6 6 6 7 9 11 12 13 14 15 16 17 18 19 19 19 18 19 20 21 21 22 22 21 21 21 21 22 21 21 22 21 20 20 21 22 23 25 26 26 25 26 25 24 24 20 14 12 15 17 18 20 23 25 27 28 28 29 30 31 30 27 21 16 12 10
5 5 5 4 4 4 5 7 6 7 8 8 9 11 12 13 14 14 15 15 16 17 18 18 18 18 19 20 21 21 22 21 21 21 22 22 23 23 22 22 22 22 22 24 26 28 28 28 28 29 28 25 22 21 19 18 18 19 19 21 22 23 23 24 25 27 29 30 29 27 27 26 23 19
5 5 5 3 3 4 6 7 7 8 8 9 10 10 11 12 12 13 14 14 15 16 17 17 17 18 18 19 20 21 21 21 21 22 23 23 24 25 24 24 24 24 23 24 25 25 26 27 27 27 26 24 23 24 23 22 21 21 21 22 23 22 22 23 24 25 27 28 26 24 24 24 24 23
Wind_Direction
327 328 324 314 306 304 307 306 308 311 309 306 299 289 277 272 275 284 281 275 275 278 276 275 280 283 282 282 283 282 282 282 282 281 280 279 278 275 271 268 262 257 257 258 259 259 258 257 257 257 257 257 257 258 257 256 256 255 254 254 254 254 255 256 256 257 258 258 259 259 259 259 259 260
332 330 330 327 318 311 307 304 305 306 307 307 305 300 289 278 271 271 278 275 272 278 279 275 278 283 282 280 282 282 282 282 281 280 279 279 280 279 275 270 266 262 259 258 259 261 260 258 257 258 258 258 258 259 259 259 258 257 256 255 255 255 256 256 256 256 257 257 258 258 259 259 260 260
336 334 330 331 332 330 324 317 315 312 310 307 306 307 305 295 285 279 277 275 275 278 282 283 283 283 280 278 278 279 279 279 279 278 276 276 277 278 275 270 265 263 262 260 260 263 264 261 259 258 258 257 258 258 259 259 259 258 258 257 256 257 257 257 257 256 256 256 257 257 258 259 259 260
325 327 327 327 329 334 334 331 330 329 324 320 318 318 318 316 312 300 289 281 283 286 285 285 285 284 281 279 279 279 280 280 278 275 274 273 273 273 273 271 269 267 267 265 264 264 265 266 265 262 259 256 256 257 259 260 260 259 259 259 259 258 258 259 259 258 257 256 256 257 257 258 259 259
326 325 323 322 320 322 327 329 328 328 327 327 327 328 325 324 326 321 311 305 298 295 293 289 287 286 283 281 282 282 282 282 280 277 274 273 271 270 271 272 273 273 272 271 269 266 264 266 268 267 263 259 257 257 258 260 260 261 262 262 261 261 261 260 260 260 259 257 256 256 257 257 258 259
330 329 325 321 319 318 321 322 322 322 322 323 324 325 325 323 321 325 327 324 316 311 311 307 301 298 292 285 285 286 285 285 284 281 278 275 272 271 272 272 273 274 274 273 271 267 264 265 267 268 265 262 260 258 259 260 260 261 263 264 264 264 263 263 262 261 261 259 258 257 257 257 258 259
327 327 325 322 320 321 320 318 317 317 317 319 320 319 319 319 314 314 319 321 316 312 314 314 314 313 309 300 297 296 292 290 287 281 278 277 275 275 275 275 275 275 275 272 268 265 266 266 269 271 268 265 263 261 260 260 261 262 263 264 265 266 266 266 265 264 263 262 261 259 259 258 259 260
327 326 324 321 320 320 320 317 315 315 314 314 315 314 312 311 309 309 311 312 310 307 305 306 308 310 310 306 304 304 300 296 290 283 279 278 276 276 277 276 275 276 276 272 266 266 268 268 270 274 273 269 265 263 263 263 263 263 264 265 266 267 267 267 267 267 266 265 264 263 262 261 260 260
326 326 323 320 319 318 316 314 313 312 312 312 311 309 307 306 307 307 307 306 306 302 299 301 303 304 305 303 304 307 305 300 295 290 285 280 277 276 275 273 273 274 274 272 269 268 267 266 267 268 270 269 266 266 266 267 268 266 266 266 266 267 268 268 267 267 268 267 267 266 265 264 263 262
324 323 321 318 316 314 310 309 308 307 307 306 305 304 303 303 304 303 303 303 302 299 296 296 297 298 300 301 302 305 305 300 296 294 291 286 280 275 272 271 271 271 271 271 270 269 266 264 263 261 264 268 269 268 268 271 272 270 268 267 268 269 269 268 268 267 267 268 268 268 268 267 266 265
322 320 319 316 313 310 308 306 304 304 303 301 298 298 299 299 299 297 297 298 297 295 294 292 292 292 293 294 295 299 302 298 293 291 290 287 285 280 273 271 271 270 269 267 267 267 265 265 264 262 265 268 268 267 269 273 275 272 269 269 270 270 270 268 266 266 267 267 268 268 269 269 268 267
319 317 316 313 311 309 306 304 302 300 300 298 296 296 297 296 294 293 292 292 291 290 289 288 290 291 290 288 289 294 298 296 292 290 285 282 285 283 276 273 272 269 267 265 264 264 266 267 268 269 270 270 269 267 269 272 272 269 267 268 270 272 273 270 266 264 265 267 268 268 268 269 269 269
316 315 314 312 310 307 303 300 299 297 297 296 294 293 292 290 289 288 288 288 287 286 285 283 286 288 287 285 286 286 286 286 289 290 286 279 280 282 280 276 272 268 267 267 266 266 268 270 272 273 272 272 270 267 264 263 263 263 266 270 273 275 276 275 271 266 264 265 267 269 270 270 270 270
316 314 312 310 307 304 301 300 299 298 298 296 294 293 291 288 288 290 290 288 285 282 280 278 280 282 282 284 284 281 279 281 283 286 284 279 280 282 281 280 278 273 268 266 267 268 268 269 270 271 270 270 269 265 263 262 263 265 270 274 276 276 276 277 275 270 266 265 266 269 271 272 272 271
314 312 311 310 308 305 303 302 302 302 303 304 303 302 299 298 298 299 296 291 286 282 279 277 275 271 274 281 283 280 278 278 277 278 278 277 278 278 274 278 283 280 273 265 264 267 267 265 263 264 265 267 268 268 267 267 268 270 272 273 272 274 276 278 277 273 269 266 267 271 273 273 272 272
310 310 311 312 309 307 306 305 305 306 306 305 303 304 305 304 302 300 296 291 287 283 280 279 276 273 275 278 278 278 277 274 272 273 273 271 269 267 264 260 270 278 279 266 257 263 267 263 258 260 264 267 268 269 269 270 271 273 273 272 270 272 276 279 278 275 272 270 271 273 275 276 277 276
309 310 312 312 309 308 308 307 307 307 305 304 303 305 309 308 304 301 297 293 290 286 281 276 273 274 276 277 275 276 277 276 272 269 268 268 264 258 255 254 262 276 281 266 251 260 270 271 265 264 270 274 271 270 269 270 271 271 271 272 272 275 279 282 280 277 274 273 273 274 275 278 279 278
308 311 311 310 309 310 310 310 308 306 305 307 308 308 308 306 303 299 296 294 291 289 287 281 278 281 285 286 285 282 278 275 272 269 266 268 265 261 261 262 265 275 278 268 254 260 272 276 273 270 276 282 278 273 269 268 270 272 273 274 276 278 280 280 278 275 273 273 272 272 273 274 275 277
317 317 316 314 313 313 311 310 307 305 307 311 311 309 307 303 298 293 291 289 287 288 290 288 287 292 295 297 299 295 284 273 270 271 271 269 268 267 268 268 266 269 272 266 252 251 267 270 266 269 279 284 282 279 274 272 274 275 276 277 277 278 279 278 277 274 273 272 271 271 272 272 274 278
333 332 328 322 318 315 311 312 312 311 312 315 314 311 308 303 297 292 289 287 285 286 286 285 287 292 295 295 299 302 297 281 275 278 276 272 270 265 262 264 262 263 268 264 248 242 261 266 261 266 277 282 283 283 282 280 281 281 281 281 281 281 281 280 279 277 275 274 273 273 274 275 276 277
344 347 341 326 320 320 319 321 323 322 321 321 319 315 310 305 300 295 293 292 288 282 279 281 287 292 294 294 297 301 302 297 292 290 282 275 270 258 249 254 256 258 265 264 248 237 252 263 263 267 276 279 280 282 285 285 286 286 287 287 287 287 286 285 284 282 280 278 277 277 276 275 275 273
352 356 353 340 335 337 336 333 332 332 330 329 326 320 312 307 302 300 302 301 295 288 285 284 286 290 292 295 298 301 303 304 301 292 285 283 273 255 246 250 256 259 264 262 250 238 247 261 266 270 276 278 277 280 286 289 292 293 293 293 293 293 293 291 289 287 285 284 282 280 278 276 274 272
357 1 3 358 348 342 338 337 338 339 336 332 328 322 315 310 306 306 307 305 301 299 298 294 291 292 294 297 301 304 304 303 297 285 285 289 277 261 255 257 256 258 267 266 254 241 246 260 264 265 271 279 281 284 288 291 294 295 295 295 295 296 296 295 294 293 291 290 287 285 285 283 280 275
358 5 9 5 351 342 340 343 347 347 343 340 337 333 327 317 310 310 310 307 304 303 302 300 297 295 296 298 302 305 303 300 296 289 285 283 276 268 262 256 245 234 256 267 257 244 244 252 257 259 259 256 275 286 284 284 287 288 290 293 296 298 299 296 294 293 292 291 291 289 288 288 286 281
5 9 15 10 357 352 353 357 360 359 1 2 356 348 340 327 316 315 314 310 307 303 301 302 301 298 298 299 301 304 305 304 300 293 284 274 267 264 261 255 246 241 250 259 258 254 251 239 248 261 261 251 258 279 284 287 288 290 296 302 305 308 307 300 296 295 293 292 291 289 288 288 288 285
25 22 21 14 3 1 8 11 10 10 13 14 8 0 355 345 338 336 331 325 321 314 307 307 306 305 308 306 302 303 310 312 308 300 288 269 258 255 253 251 249 249 257 265 264 261 258 246 250 260 261 260 270 280 284 290 297 306 315 319 317 315 309 304 302 300 298 295 292 291 292 291 290 287
35 27 23 15 5 9 18 21 19 17 17 16 13 10 8 6 4 1 354 346 341 333 327 326 324 324 327 323 313 311 313 316 315 311 303 278 264 258 248 241 242 248 259 267 264 263 266 264 261 261 259 263 272 269 267 280 298 313 319 320 320 317 311 307 306 304 302 298 294 292 291 291 291 289
30 26 22 14 11 20 27 29 27 24 21 19 16 15 16 17 17 13 3 356 353 350 347 345 338 334 334 329 322 318 318 318 313 304 295 292 253 237 214 196 200 216 230 237 240 244 250 256 264 268 263 263 263 261 265 279 297 314 320 323 327 325 321 320 317 315 316 310 304 299 293 289 287 283
27 31 32 26 29 35 35 34 32 27 23 23 22 21 20 21 20 15 6 2 1 359 356 352 345 340 337 332 327 324 324 321 309 293 279 216 144 155 149 136 134 142 140 127 127 131 226 268 279 280 273 267 266 269 282 295 309 328 338 341 339 330 334 344 341 337 342 344 343 339 325 307 292 281
31 40 42 39 40 41 38 37 34 29 27 28 28 26 24 21 19 15 10 7 6 3 359 355 352 349 345 342 342 344 345 338 322 296 264 209 171 165 145 118 102 92 75 54 35 16 324 276 272 272 269 270 282 294 293 297 327 357 2 1 354 336 344 7 23 40 50 58 59 56 53 43 14 325
44 47 45 42 42 43 44 44 41 36 33 30 29 28 25 22 20 19 17 15 12 8 3 1 0 1 2 4 8 10 12 16 19 19 215 195 179 171 145 105 83 77 74 63 48 37 11 304 275 274 271 276 9 27 29 36 37 32 26 28 31 23 14 23 49 74 82 86 81 74 72 71 68 71
55 54 49 45 44 43 43 42 40 38 35 31 28 27 26 25 24 23 23 22 18 12 9 8 10 12 14 16 17 19 22 30 41 60 82 89 106 140 127 88 67 69 77 78 75 75 72 69 76 80 79 79 75 72 72 63 50 41 38 42 48 46 39 41 54 76 92 96 87 77 73 75 75 74
61 55 50 45 41 38 35 34 32 32 31 30 31 30 28 27 26 24 23 20 16 13 13 12 12 14 17 19 21 24 26 30 41 57 69 73 77 84 84 72 58 57 70 77 81 83 80 78 83 88 86 81 75 69 67 59 47 43 43 44 46 45 45 51 62 78 89 89 81 73 71 74 77 78
65 58 53 48 41 35 31 29 27 27 26 26 28 29 29 28 27 25 23 20 17 16 17 17 16 16 19 22 24 26 26 29 38 52 60 65 69 72 72 67 58 56 62 68 77 89 90 87 88 87 84 79 71 61 57 53 46 42 44 46 46 43 45 53 65 77 87 87 83 79 74 73 76 78
69 62 57 50 42 36 32 29 26 26 26 25 25 26 28 29 28 26 24 22 21 19 20 21 22 21 22 24 26 28 29 31 37 46 53 59 62 65 67 66 60 57 59 59 60 75 104 115 102 89 80 75 68 57 50 47 45 42 42 43 44 45 47 54 63 71 79 86 90 89 82 75 76 77
72 66 60 53 43 36 33 30 28 27 27 27 27 25 23 25 27 28 27 27 27 27 25 24 24 24 24 26 28 31 34 36 38 41 45 49 54 59 64 65 62 60 60 58 59 70 86 95 93 87 78 68 69 60 44 41 43 43 40 41 44 46 51 57 63 66 68 73 84 90 89 86 84 75
77 72 65 58 48 41 36 32 31 33 31 29 28 25 22 23 26 29 32 34 35 35 33 30 28 28 28 29 31 33 35 38 39 39 40 42 46 50 53 56 58 59 60 59 62 71 79 79 78 80 83 74 73 77 44 37 40 39 38 45 49 48 52 60 62 60 61 65 71 80 85 85 78 65
77 72 67 61 52 45 42 37 37 37 33 30 29 28 28 29 31 35 38 38 37 37 37 36 34 32 33 33 33 32 34 36 38 38 38 39 41 42 43 47 49 53 57 60 63 70 76 76 74 75 79 81 77 77 58 41 38 37 39 48 56 54 56 63 64 60 60 63 66 71 75 72 66 60
78 71 64 59 53 48 46 45 43 40 35 33 32 32 34 35 36 38 40 40 38 38 38 38 37 36 37 38 38 37 37 36 35 32 34 37 39 39 42 44 45 50 55 57 58 65 72 75 75 76 80 85 89 87 83 72 55 49 51 55 60 62 63 67 69 66 63 63 66 70 73 72 67 63
84 76 65 62 60 55 51 48 45 42 40 38 39 41 42 41 40 40 40 40 40 41 40 40 40 41 40 39 41 43 43 40 38 35 35 39 41 43 47 48 48 52 55 51 49 52 56 63 76 85 91 97 100 93 86 79 66 57 56 56 58 62 64 65 65 63 58 60 66 66 62 60 55 50
96 86 75 72 68 62 54 45 39 44 49 47 49 54 54 50 47 45 44 44 44 44 44 43 43 43 43 42 43 45 45 43 42 41 41 44 45 48 52 53 51 53 55 51 44 43 48 64 89 102 106 108 105 93 79 70 62 57 56 56 58 61 63 63 63 61 57 58 63 61 53 51 49 44
112 97 87 80 72 67 58 41 36 54 73 66 62 66 66 62 57 54 52 51 50 49 48 47 46 47 47 47 48 50 49 47 46 46 47 49 50 51 53 54 52 54 57 55 50 54 65 79 94 101 100 96 91 84 72 60 61 61 59 59 59 61 64 65 65 64 61 59 58 53 42 39 44 38
132 116 102 86 73 70 55 36 42 74 90 82 75 74 73 68 62 57 54 51 51 52 52 50 50 51 51 51 53 54 54 52 51 52 52 53 54 55 54 56 59 62 64 65 64 68 74 78 83 85 82 75 75 77 74 66 62 59 58 59 58 58 63 68 70 70 68 65 63 61 58 61 67 60
153 133 117 96 79 68 46 38 61 90 93 85 81 77 73 69 63 59 56 53 52 56 57 55 53 53 53 55 57 57 57 57 57 58 58 58 60 61 61 63 67 68 68 69 69 69 72 74 75 75 73 67 66 70 70 65 61 58 56 56 55 52 55 61 66 68 67 65 64 65 66 69 73 75
171 151 132 113 89 61 44 50 84 102 95 86 84 79 74 71 66 63 60 55 55 58 60 57 54 54 55 57 57 56 58 61 63 65 65 64 65 66 66 68 70 68 67 69 70 68 70 71 70 70 69 66 65 67 68 65 62 58 54 52 51 48 48 52 56 58 58 57 58 62 65 66 68 68